Starlink 5149

operational
NORAD ID: 53981 Int'l Des: 2022-125 Owner: SPXS Country: US Constellation: starlink
LEOCIRCULAR

About Starlink 5149

Description loading...

Live Position

Loading 3D Globe...

Upcoming Passes

Altitude History

Altitude vs Time

uPlot chart will show altitude changes over time

Two-Line Element Set

1 53981U 22125T 25303.77509627 .00000646 00000-0 58669-4 0 9998
2 53981 53.2157 67.1035 0001125 79.7041 280.4078 15.08836818169991
Epoch: Oct 30, 2025 • Age: 6 hours

Current Status

Altitude 540.5 km
Velocity 7.59 km/s
Sub-Earth Point 0.38°N, 12.15°E
Launch Date Oct 5, 2022
Age 3 years
Type internet

Technical Details

Classification Payload
Mass 305.00 kg
Dry Mass 290.00 kg
Total Mass 305.00 kg
Length 0.20 m
Diameter 2.80 m
Span 9.00 m
Shape Box + pan
Manufacturer SPXS
Bus Type Starlink
Phase Status In Orbit
Owner/State SPXS/US

Large Constellations

Loading constellations...